Location: Laupheim
(48.2265°N, 9.8829°E)
Time: 15:21:14
(UTC+01:00)

ISS - Pass Details

Date: 05 January 2018
Orbit: 402 x 407 km, 51.6° (Epoch: 21 January)

Event Time Altitude Azimuth Distance (km) Brightness Sun altitude
Exits shadow 06:03:18 45° 19° (NNE) 571 -3.1 -20.3°
Drops below altitude 10° 06:06:04 10° 68° (ENE) 1,471 -0.2 -19.8°
Sets 06:08:13 0° 74° (ENE) 2,334 1.1 -19.5°
